M I D A S
Marine Information and Data Acquisition System
Tripno 2025 of the Zeeleeuw from 2010-10-26 07:02:43 to 2010-10-26 15:31:46
Back to CruiseResearch ActivitiesStationsMapUnderway DataData graphs

EquipmentUnitsComments
TimeDGPSUTC
LatitudeDGPSDM.mWGS84
LongitudeDGPSDM.mWGS84
SpeedMeteo Stationm/sRelative wind speed
DirectionMeteo StationdegRelative wind direction
TemperatureMeteo Stationdeg CelciusAir temperature
PressureMeteo StationPaAtmospheric pressure
HumidityMeteo Station%Relative humidity
Missing or incorrect values are displayed as -999
Metereological data collected by the RV Zeeleeuw from 2010-10-26 06:59:19 to 2010-10-26 15:36:40
Time Latitude Longitude Speed Direction Temperature Pressure Humidity
2010-10-26 07:00 51°13.662 2°55.961 -999 -999 4.9 102820 42
2010-10-26 07:01 51°13.662 2°55.961 -999 7 4.9 102820 42
2010-10-26 07:02 51°13.662 2°55.96 -999 359 4.9 102830 42
2010-10-26 07:03 51°13.663 2°55.961 -999 19 4.9 102830 42
2010-10-26 07:04 51°13.663 2°55.96 -999 18 4.9 102830 42
2010-10-26 07:05 51°13.664 2°55.96 -999 359 5 102830 42
2010-10-26 07:06 51°13.663 2°55.96 -999 348 5 102830 42
2010-10-26 07:07 51°13.663 2°55.96 0.1 23 5 102830 42
2010-10-26 07:08 51°13.662 2°55.96 -999 26 5.1 102830 42
2010-10-26 07:09 51°13.666 2°55.946 0.2 29 5.1 102830 42
2010-10-26 07:10 51°13.684 2°55.847 2.7 41 5.1 102830 41
2010-10-26 07:11 51°13.689 2°55.756 1.2 41 5.1 102830 44
2010-10-26 07:12 51°13.701 2°55.752 -999 53 5.1 102830 42
2010-10-26 07:13 51°13.735 2°55.729 0.1 307 5.2 102830 41
2010-10-26 07:14 51°13.812 2°55.642 -999 254 5.2 102830 42
2010-10-26 07:15 51°13.935 2°55.552 2.3 325 5.2 102830 42
2010-10-26 07:16 51°14.074 2°55.454 2.1 309 5.2 102840 44
2010-10-26 07:17 51°14.222 2°55.327 1.3 322 5.3 102830 43
2010-10-26 07:18 51°14.372 2°55.184 2.7 310 5.3 102830 44
2010-10-26 07:19 51°14.532 2°55.02 5 244 5.5 102820 43
2010-10-26 07:20 51°14.683 2°54.839 5.5 311 5.6 102820 43
2010-10-26 07:21 51°14.849 2°54.673 5 248 5.7 102820 43
2010-10-26 07:22 51°15.022 2°54.552 2.5 308 5.8 102830 42
2010-10-26 07:23 51°15.197 2°54.484 4.9 241 6 102830 42
2010-10-26 07:24 51°15.341 2°54.281 6.4 305 6.1 102820 42
2010-10-26 07:25 51°15.461 2°54.08 6.7 306 6.3 102820 42
2010-10-26 07:26 51°15.541 2°53.932 6.5 305 6.4 102820 44
2010-10-26 07:27 51°15.607 2°53.809 6.5 303 6.4 102820 42
2010-10-26 07:28 51°15.672 2°53.69 8.6 310 6.4 102820 43
2010-10-26 07:29 51°15.748 2°53.573 5 309 6.5 102820 42
2010-10-26 07:30 51°15.823 2°53.463 5.5 260 6.5 102820 41
2010-10-26 07:31 51°15.899 2°53.357 4.2 303 6.5 102820 41
2010-10-26 07:32 51°15.978 2°53.259 4.1 264 6.6 102820 41
2010-10-26 07:33 51°16.059 2°53.162 3.6 310 6.5 102820 42
2010-10-26 07:34 51°16.139 2°53.066 5.1 270 6.5 102820 42
2010-10-26 07:35 51°16.221 2°52.971 5.6 305 6.5 102810 41
2010-10-26 07:36 51°16.306 2°52.884 3.5 303 6.5 102820 41
2010-10-26 07:37 51°16.4 2°52.807 4.2 267 6.5 102810 41
2010-10-26 07:38 51°16.496 2°52.728 4.4 309 6.5 102810 41
2010-10-26 07:39 51°16.592 2°52.65 4.5 32 6.6 102810 41
2010-10-26 07:40 51°16.692 2°52.596 4.2 298 6.7 102810 44
2010-10-26 07:41 51°16.794 2°52.554 4.6 32 6.8 102810 42
2010-10-26 07:42 51°16.895 2°52.507 5.2 51 6.8 102820 41
2010-10-26 07:43 51°16.994 2°52.459 5 38 6.9 102820 42
2010-10-26 07:44 51°17.092 2°52.411 4.4 53 6.9 102810 41
2010-10-26 07:45 51°17.191 2°52.364 6 52 6.9 102820 43
2010-10-26 07:46 51°17.289 2°52.326 3.9 38 6.9 102820 41
2010-10-26 07:47 51°17.39 2°52.316 3.6 52 7 102820 41
2010-10-26 07:48 51°17.489 2°52.303 4.4 37 7.1 102820 43
2010-10-26 07:49 51°17.589 2°52.286 4.3 32 7.1 102810 43
2010-10-26 07:50 51°17.687 2°52.268 4.9 31 7.1 102810 41
2010-10-26 07:51 51°17.786 2°52.25 4.8 33 7.2 102810 43
2010-10-26 07:52 51°17.886 2°52.232 4.8 36 7.3 102800 41
2010-10-26 07:53 51°17.985 2°52.211 4.9 40 7.3 102800 43
2010-10-26 07:54 51°18.087 2°52.192 5.1 33 7.3 102800 41
2010-10-26 07:55 51°18.188 2°52.171 4.5 33 7.4 102800 43
2010-10-26 07:56 51°18.289 2°52.149 5.2 38 7.4 102800 41
2010-10-26 07:57 51°18.389 2°52.127 5 33 7.3 102810 42
2010-10-26 07:58 51°18.489 2°52.104 5.1 31 7.3 102810 42
2010-10-26 07:59 51°18.591 2°52.083 5.1 33 7.3 102810 42
2010-10-26 08:00 51°18.693 2°52.061 4.1 33 7.4 102800 41
2010-10-26 08:01 51°18.793 2°52.04 5.2 30 7.5 102790 40
2010-10-26 08:02 51°18.894 2°52.017 5.1 33 7.5 102800 40
2010-10-26 08:03 51°18.995 2°51.992 4.2 33 7.5 102810 40
2010-10-26 08:04 51°19.098 2°51.969 4.1 34 7.7 102810 43
2010-10-26 08:05 51°19.199 2°51.942 4.4 39 7.7 102810 42
2010-10-26 08:06 51°19.3 2°51.915 4.4 39 7.7 102790 40
2010-10-26 08:07 51°19.401 2°51.888 4.9 35 7.7 102800 41
2010-10-26 08:08 51°19.501 2°51.858 3.7 30 7.7 102800 41
2010-10-26 08:09 51°19.602 2°51.829 5.6 36 7.9 102790 43
2010-10-26 08:10 51°19.702 2°51.8 4.3 38 7.8 102790 41
2010-10-26 08:11 51°19.802 2°51.773 3.9 33 7.9 102790 41
2010-10-26 08:12 51°19.903 2°51.746 5.3 33 8 102780 41
2010-10-26 08:13 51°20.002 2°51.716 4.5 30 7.8 102780 41
2010-10-26 08:14 51°20.104 2°51.685 5.5 32 7.8 102780 40
2010-10-26 08:15 51°20.203 2°51.657 5.5 30 7.9 102780 43
2010-10-26 08:16 51°20.303 2°51.629 5.7 33 7.8 102780 40
2010-10-26 08:17 51°20.403 2°51.598 5.6 32 7.8 102780 40
2010-10-26 08:18 51°20.506 2°51.567 5.2 34 7.8 102780 40
2010-10-26 08:19 51°20.608 2°51.538 4.2 32 7.9 102770 41
2010-10-26 08:20 51°20.708 2°51.511 5.8 32 8 102780 40
2010-10-26 08:21 51°20.809 2°51.48 4.8 31 8 102780 40
2010-10-26 08:22 51°20.907 2°51.455 4.6 33 8.1 102760 41
2010-10-26 08:23 51°21.01 2°51.428 5.5 37 8.2 102760 40
2010-10-26 08:24 51°21.111 2°51.402 6.6 33 8.1 102770 41
2010-10-26 08:25 51°21.212 2°51.373 5.3 32 8.1 102760 40
2010-10-26 08:26 51°21.312 2°51.345 5.4 32 8.2 102770 41
2010-10-26 08:27 51°21.413 2°51.321 5.8 34 8.2 102760 41
2010-10-26 08:28 51°21.514 2°51.294 5.3 33 8.2 102770 40
2010-10-26 08:29 51°21.613 2°51.269 6.4 34 8.2 102760 40
2010-10-26 08:30 51°21.715 2°51.242 6 32 8.2 102750 39
2010-10-26 08:31 51°21.816 2°51.215 5.4 31 8.2 102750 39
2010-10-26 08:32 51°21.917 2°51.188 5.6 31 8.3 102750 40
2010-10-26 08:33 51°22.017 2°51.165 6.5 36 8.4 102760 42
2010-10-26 08:34 51°22.117 2°51.142 7 36 8.4 102750 40
2010-10-26 08:35 51°22.216 2°51.126 6.7 32 8.3 102760 40
2010-10-26 08:36 51°22.312 2°51.119 7.1 32 8.3 102750 39
2010-10-26 08:37 51°22.413 2°51.107 8 31 8.3 102760 39
2010-10-26 08:38 51°22.508 2°51.096 6.5 36 8.3 102760 40
2010-10-26 08:39 51°22.607 2°51.084 6.5 31 8.4 102760 40
2010-10-26 08:40 51°22.703 2°51.071 6.2 33 8.5 102760 40
2010-10-26 08:41 51°22.798 2°51.06 7 32 8.5 102760 39
2010-10-26 08:42 51°22.895 2°51.048 7.1 38 8.3 102760 38
2010-10-26 08:43 51°22.996 2°51.041 6.3 32 8.5 102750 40
2010-10-26 08:44 51°23.098 2°51.035 5.7 39 8.5 102750 40
2010-10-26 08:45 51°23.199 2°51.029 6.4 36 8.6 102760 41
2010-10-26 08:46 51°23.3 2°51.022 7.1 30 8.5 102750 39
2010-10-26 08:47 51°23.401 2°51.015 6.5 33 8.5 102750 39
2010-10-26 08:48 51°23.503 2°51.008 6.7 37 8.5 102760 40
2010-10-26 08:49 51°23.605 2°50.996 5.5 38 8.5 102740 39
2010-10-26 08:50 51°23.706 2°50.988 6.3 33 8.5 102750 40
2010-10-26 08:51 51°23.809 2°50.977 7.4 32 8.7 102750 40
2010-10-26 08:52 51°23.91 2°50.967 7.3 33 8.7 102740 38
2010-10-26 08:53 51°24.016 2°50.956 6.7 37 8.7 102740 38
2010-10-26 08:54 51°24.117 2°50.945 6.1 34 8.8 102730 38
2010-10-26 08:55 51°24.221 2°50.934 9.2 35 8.9 102740 39
2010-10-26 08:56 51°24.322 2°50.922 7.9 34 8.8 102740 39
2010-10-26 08:57 51°24.423 2°50.913 7.2 35 8.9 102740 38
2010-10-26 08:58 51°24.524 2°50.899 6.6 32 9 102740 38
2010-10-26 08:59 51°24.624 2°50.885 7.2 35 9.1 102740 38
2010-10-26 09:00 51°24.724 2°50.872 7.4 52 8.9 102740 37
2010-10-26 09:01 51°24.825 2°50.86 8.2 38 9 102740 39
2010-10-26 09:02 51°24.928 2°50.844 6.9 38 9.1 102740 39
2010-10-26 09:03 51°25.024 2°50.83 7.1 33 9.1 102730 37
2010-10-26 09:04 51°25.125 2°50.814 6.5 33 9.1 102740 38
2010-10-26 09:05 51°25.222 2°50.799 5.4 31 9.1 102740 38
2010-10-26 09:06 51°25.325 2°50.785 8.3 38 9.1 102730 38
2010-10-26 09:07 51°25.426 2°50.769 6.6 58 9 102730 38
2010-10-26 09:08 51°25.525 2°50.754 6.1 38 9.1 102740 39
2010-10-26 09:09 51°25.626 2°50.738 7.3 36 9.2 102730 38
2010-10-26 09:10 51°25.724 2°50.72 5.6 38 9.2 102720 39
2010-10-26 09:11 51°25.826 2°50.705 7.4 32 9.2 102730 38
2010-10-26 09:12 51°25.929 2°50.687 7.2 30 9.2 102720 38
2010-10-26 09:13 51°26.03 2°50.672 9.3 35 9.3 102720 38
2010-10-26 09:14 51°26.131 2°50.655 7.1 31 9.2 102730 38
2010-10-26 09:15 51°26.235 2°50.639 7.8 33 9.2 102730 38
2010-10-26 09:16 51°26.34 2°50.623 7.9 35 9.2 102710 36
2010-10-26 09:17 51°26.444 2°50.611 7.7 32 9.4 102720 38
2010-10-26 09:18 51°26.549 2°50.596 7.2 35 9.3 102720 37
2010-10-26 09:19 51°26.653 2°50.583 7.2 34 9.5 102720 39
2010-10-26 09:20 51°26.756 2°50.571 7.5 32 9.5 102720 39
2010-10-26 09:21 51°26.86 2°50.56 7 35 9.4 102720 38
2010-10-26 09:22 51°26.962 2°50.551 6 30 9.4 102710 37
2010-10-26 09:23 51°27.062 2°50.538 7.4 37 9.5 102720 39
2010-10-26 09:24 51°27.164 2°50.528 7.5 33 9.4 102710 37
2010-10-26 09:25 51°27.265 2°50.518 8.1 32 9.5 102710 38
2010-10-26 09:26 51°27.365 2°50.503 8.6 37 9.4 102710 39
2010-10-26 09:27 51°27.466 2°50.49 9.5 32 9.4 102710 37
2010-10-26 09:28 51°27.566 2°50.478 5.8 34 9.4 102710 38
2010-10-26 09:29 51°27.664 2°50.467 8.6 30 9.6 102710 39
2010-10-26 09:30 51°27.765 2°50.452 7.9 31 9.6 102710 39
2010-10-26 09:31 51°27.865 2°50.437 8.3 39 9.5 102700 37
2010-10-26 09:32 51°27.965 2°50.422 6.5 32 9.6 102710 38
2010-10-26 09:33 51°28.064 2°50.407 7.1 34 9.7 102710 40
2010-10-26 09:34 51°28.164 2°50.39 8.7 33 9.7 102700 39
2010-10-26 09:35 51°28.265 2°50.37 9.1 33 9.6 102720 38
2010-10-26 09:36 51°28.365 2°50.353 8.6 35 9.6 102720 40
2010-10-26 09:37 51°28.464 2°50.333 8.3 32 9.7 102710 38
2010-10-26 09:38 51°28.561 2°50.315 9.3 35 9.6 102700 38
2010-10-26 09:39 51°28.661 2°50.295 8.9 35 9.5 102720 38
2010-10-26 09:40 51°28.76 2°50.278 9.7 34 9.5 102710 39
2010-10-26 09:41 51°28.854 2°50.303 5 32 9.5 102720 38
2010-10-26 09:42 51°28.952 2°50.35 4.6 32 9.7 102720 37
2010-10-26 09:43 51°29.056 2°50.394 6 38 10.1 102720 38
2010-10-26 09:44 51°29.165 2°50.439 6.3 31 10.1 102720 39
2010-10-26 09:45 51°29.274 2°50.478 7.2 39 10 102720 39
2010-10-26 09:46 51°29.382 2°50.515 7.2 39 9.9 102720 37
2010-10-26 09:47 51°29.485 2°50.579 7.1 33 9.6 102720 37
2010-10-26 09:48 51°29.533 2°50.727 9.8 23 9.6 102700 38
2010-10-26 09:49 51°29.524 2°50.899 13.7 18 9.5 102690 38
2010-10-26 09:50 51°29.482 2°51.063 10 7 9.5 102690 38
2010-10-26 09:51 51°29.411 2°51.207 11.4 7 9.6 102670 38
2010-10-26 09:52 51°29.319 2°51.326 13.7 359 9.6 102660 38
2010-10-26 09:53 51°29.233 2°51.428 8.9 2 9.5 102680 38
2010-10-26 09:54 51°29.149 2°51.521 13.9 356 9.6 102680 38
2010-10-26 09:55 51°29.048 2°51.56 14.2 350 9.4 102660 37
2010-10-26 09:56 51°28.94 2°51.55 11.7 343 9.4 102690 36
2010-10-26 09:57 51°28.831 2°51.529 11.6 340 9.5 102690 38
2010-10-26 09:58 51°28.721 2°51.504 11.8 338 9.6 102680 40
2010-10-26 09:59 51°28.618 2°51.478 14 340 9.6 102690 38
2010-10-26 10:00 51°28.515 2°51.452 12.9 344 9.5 102700 39
2010-10-26 10:01 51°28.413 2°51.427 12.4 344 9.5 102680 38
2010-10-26 10:02 51°28.311 2°51.401 11.9 343 9.5 102700 39
2010-10-26 10:03 51°28.209 2°51.372 10.9 341 9.6 102710 39
2010-10-26 10:04 51°28.109 2°51.348 13.7 340 9.5 102690 37
2010-10-26 10:05 51°28.012 2°51.325 12.3 341 9.4 102690 39
2010-10-26 10:06 51°27.917 2°51.303 11.5 344 9.4 102690 38
2010-10-26 10:07 51°27.82 2°51.28 12.8 341 9.4 102690 39
2010-10-26 10:08 51°27.72 2°51.256 11.6 339 9.5 102690 40
2010-10-26 10:09 51°27.624 2°51.239 10.4 344 9.6 102690 41
2010-10-26 10:10 51°27.529 2°51.221 13.5 338 9.5 102690 40
2010-10-26 10:11 51°27.431 2°51.2 11 339 9.7 102700 41
2010-10-26 10:12 51°27.33 2°51.176 12 338 9.6 102700 38
2010-10-26 10:13 51°27.225 2°51.157 13.3 340 9.6 102700 41
2010-10-26 10:14 51°27.119 2°51.136 14 338 9.5 102690 39
2010-10-26 10:15 51°27.016 2°51.117 11.7 340 9.4 102700 39
2010-10-26 10:16 51°26.918 2°51.101 12.9 337 9.4 102710 39
2010-10-26 10:17 51°26.821 2°51.084 13.2 340 9.4 102700 40
2010-10-26 10:18 51°26.724 2°51.068 12.4 338 9.3 102690 39
2010-10-26 10:19 51°26.626 2°51.053 12.1 339 9.3 102690 39
2010-10-26 10:20 51°26.527 2°51.036 11.1 337 9.3 102690 38
2010-10-26 10:21 51°26.428 2°51.018 11.8 343 9.4 102690 39
2010-10-26 10:22 51°26.33 2°51 12.4 341 9.3 102690 39
2010-10-26 10:23 51°26.232 2°50.983 12.2 343 9.2 102690 39
2010-10-26 10:24 51°26.132 2°50.967 11.6 339 9.3 102700 40
2010-10-26 10:25 51°26.033 2°50.948 12.5 337 9.3 102700 39
2010-10-26 10:26 51°25.936 2°50.928 12 341 9.2 102700 39
2010-10-26 10:27 51°25.836 2°50.913 12.4 343 9.2 102700 40
2010-10-26 10:28 51°25.734 2°50.892 11.1 340 9.4 102700 40
2010-10-26 10:29 51°25.632 2°50.864 13.6 341 9.4 102690 41
2010-10-26 10:30 51°25.531 2°50.842 11.6 343 9.2 102690 39
2010-10-26 10:31 51°25.434 2°50.822 13.1 346 9.2 102690 39
2010-10-26 10:32 51°25.338 2°50.798 13.6 340 9.2 102700 40
2010-10-26 10:33 51°25.244 2°50.779 10.9 340 9.2 102700 39
2010-10-26 10:34 51°25.148 2°50.757 11.7 340 9.1 102690 39
2010-10-26 10:35 51°25.055 2°50.738 12.9 342 9.1 102700 40
2010-10-26 10:36 51°24.959 2°50.715 11.6 336 9 102700 37
2010-10-26 10:37 51°24.86 2°50.695 12.4 339 9.1 102700 40
2010-10-26 10:38 51°24.765 2°50.677 12 340 9.1 102690 39
2010-10-26 10:39 51°24.666 2°50.652 11.8 342 9 102700 40
2010-10-26 10:40 51°24.567 2°50.633 12.5 339 8.9 102690 38
2010-10-26 10:41 51°24.469 2°50.608 11.2 337 8.9 102700 39
2010-10-26 10:42 51°24.369 2°50.589 11.2 338 9 102700 39
2010-10-26 10:43 51°24.267 2°50.569 12.4 341 9.1 102690 39
2010-10-26 10:44 51°24.168 2°50.55 12.3 340 9 102700 39
2010-10-26 10:45 51°24.065 2°50.528 10.7 343 9.1 102700 41
2010-10-26 10:46 51°23.962 2°50.51 12.3 341 9.1 102700 40
2010-10-26 10:47 51°23.862 2°50.494 12.7 345 9 102690 40
2010-10-26 10:48 51°23.761 2°50.475 10.9 339 9 102690 39
2010-10-26 10:49 51°23.658 2°50.459 11.7 341 9.1 102700 40
2010-10-26 10:50 51°23.554 2°50.442 11.5 342 9.1 102690 40
2010-10-26 10:51 51°23.452 2°50.435 12.1 338 8.9 102700 40
2010-10-26 10:52 51°23.353 2°50.425 10.8 341 8.9 102690 38
2010-10-26 10:53 51°23.253 2°50.416 13.1 339 8.9 102700 39
2010-10-26 10:54 51°23.151 2°50.407 12.5 338 8.9 102690 39
2010-10-26 10:55 51°23.047 2°50.398 13.3 341 8.9 102690 39
2010-10-26 10:56 51°22.943 2°50.394 11.1 344 8.9 102690 40
2010-10-26 10:57 51°22.84 2°50.389 12.2 339 9 102690 39
2010-10-26 10:58 51°22.738 2°50.382 12.2 345 9 102700 40
2010-10-26 10:59 51°22.641 2°50.379 11 338 9 102700 39
2010-10-26 11:00 51°22.543 2°50.373 13.2 343 8.9 102700 37
2010-10-26 11:01 51°22.446 2°50.37 12.8 339 8.9 102690 38
2010-10-26 11:02 51°22.347 2°50.366 10.6 342 9 102680 39
2010-10-26 11:03 51°22.247 2°50.361 11.6 337 9.1 102700 41
2010-10-26 11:04 51°22.149 2°50.358 11.7 341 9 102680 39
2010-10-26 11:05 51°22.048 2°50.353 11.3 340 9 102700 39
2010-10-26 11:06 51°21.947 2°50.35 11.3 342 9 102690 40
2010-10-26 11:07 51°21.846 2°50.346 12.2 338 9.1 102700 41
2010-10-26 11:08 51°21.745 2°50.346 10.7 344 9 102690 38
2010-10-26 11:09 51°21.643 2°50.339 10.8 341 9 102710 40
2010-10-26 11:10 51°21.542 2°50.333 12.8 345 9 102700 39
2010-10-26 11:11 51°21.44 2°50.326 11.6 338 9 102700 40
2010-10-26 11:12 51°21.339 2°50.318 11 346 9 102700 39
2010-10-26 11:13 51°21.237 2°50.31 12.7 339 9 102710 40
2010-10-26 11:14 51°21.137 2°50.306 12.4 342 8.9 102690 40
2010-10-26 11:15 51°21.039 2°50.297 10.2 338 8.9 102700 40
2010-10-26 11:16 51°20.939 2°50.29 11.4 337 8.9 102690 38
2010-10-26 11:17 51°20.839 2°50.283 10.7 337 8.9 102700 39
2010-10-26 11:18 51°20.742 2°50.288 11 351 8.9 102690 39
2010-10-26 11:19 51°20.647 2°50.333 10.2 349 8.9 102690 40
2010-10-26 11:20 51°20.554 2°50.382 11.6 348 8.8 102690 40
2010-10-26 11:21 51°20.46 2°50.429 11.2 349 8.8 102690 39
2010-10-26 11:22 51°20.366 2°50.476 11.4 344 8.8 102680 40
2010-10-26 11:23 51°20.271 2°50.519 10.6 349 8.8 102680 40
2010-10-26 11:24 51°20.176 2°50.567 11.3 347 8.8 102690 38
2010-10-26 11:25 51°20.082 2°50.614 11.2 348 8.8 102680 41
2010-10-26 11:26 51°19.989 2°50.661 10.8 344 8.8 102670 39
2010-10-26 11:27 51°19.895 2°50.712 10.7 348 8.7 102680 40
2010-10-26 11:28 51°19.802 2°50.766 11.8 347 8.7 102680 39
2010-10-26 11:29 51°19.71 2°50.823 11.3 349 8.7 102680 40
2010-10-26 11:30 51°19.617 2°50.879 10.6 343 8.7 102670 39
2010-10-26 11:31 51°19.523 2°50.935 11 343 8.7 102670 39
2010-10-26 11:32 51°19.429 2°50.99 12.2 345 8.7 102680 38
2010-10-26 11:33 51°19.335 2°51.045 11.3 348 8.7 102670 39
2010-10-26 11:34 51°19.24 2°51.097 11.2 343 8.7 102670 39
2010-10-26 11:35 51°19.145 2°51.149 10.9 348 8.7 102680 38
2010-10-26 11:36 51°19.048 2°51.198 10.9 346 8.8 102680 40
2010-10-26 11:37 51°18.952 2°51.248 12.1 347 8.8 102680 40
2010-10-26 11:38 51°18.856 2°51.297 11 347 8.8 102680 39
2010-10-26 11:39 51°18.759 2°51.345 11.7 346 8.8 102670 39
2010-10-26 11:40 51°18.663 2°51.393 10.9 344 8.8 102670 37
2010-10-26 11:41 51°18.566 2°51.442 12.3 347 8.9 102670 39
2010-10-26 11:42 51°18.471 2°51.493 11 346 8.8 102670 39
2010-10-26 11:43 51°18.375 2°51.536 11.3 344 8.9 102660 39
2010-10-26 11:44 51°18.28 2°51.56 11.9 341 8.9 102660 39
2010-10-26 11:45 51°18.184 2°51.585 11.7 339 9 102660 40
2010-10-26 11:46 51°18.089 2°51.613 11.3 343 9 102670 39
2010-10-26 11:47 51°17.994 2°51.645 11.5 338 9 102660 38
2010-10-26 11:48 51°17.9 2°51.676 11 339 9 102650 37
2010-10-26 11:49 51°17.806 2°51.707 11.8 339 9.1 102660 38
2010-10-26 11:50 51°17.713 2°51.744 10.7 340 9.1 102650 38
2010-10-26 11:51 51°17.618 2°51.762 11.4 336 9.2 102660 40
2010-10-26 11:52 51°17.521 2°51.77 12.2 333 9.3 102660 40
2010-10-26 11:53 51°17.424 2°51.777 12.8 333 9.2 102660 40
2010-10-26 11:54 51°17.327 2°51.786 10.5 336 9.1 102650 39
2010-10-26 11:55 51°17.23 2°51.796 11.5 334 9.1 102650 39
2010-10-26 11:56 51°17.133 2°51.806 10.4 337 9.2 102650 37
2010-10-26 11:57 51°17.036 2°51.82 12 333 9.2 102650 38
2010-10-26 11:58 51°16.941 2°51.836 10.2 336 9.2 102660 39
2010-10-26 11:59 51°16.845 2°51.849 12.2 329 9.3 102660 39
2010-10-26 12:00 51°16.748 2°51.867 11.1 338 9.2 102650 39
2010-10-26 12:01 51°16.654 2°51.9 12 337 9.2 102650 39
2010-10-26 12:02 51°16.56 2°51.951 10.9 341 9.2 102650 38
2010-10-26 12:03 51°16.468 2°52.003 12.2 338 9.3 102660 39
2010-10-26 12:04 51°16.377 2°52.057 12.2 341 9.2 102650 37
2010-10-26 12:05 51°16.289 2°52.107 10.4 338 9.2 102650 38
2010-10-26 12:06 51°16.199 2°52.161 9.9 341 9.2 102650 38
2010-10-26 12:07 51°16.105 2°52.214 10.4 340 9.2 102640 39
2010-10-26 12:08 51°16.009 2°52.27 12.2 334 9.3 102660 39
2010-10-26 12:09 51°15.915 2°52.325 10 338 9.2 102650 39
2010-10-26 12:10 51°15.821 2°52.379 10.5 340 9.3 102650 39
2010-10-26 12:11 51°15.727 2°52.437 10.9 338 9.3 102640 38
2010-10-26 12:12 51°15.635 2°52.494 10.2 340 9.2 102640 37
2010-10-26 12:13 51°15.542 2°52.514 11.6 332 9.3 102650 39
2010-10-26 12:14 51°15.447 2°52.511 12.6 331 9.2 102650 38
2010-10-26 12:15 51°15.338 2°52.506 11.5 331 9.2 102650 38
2010-10-26 12:16 51°15.241 2°52.449 12.7 320 9.3 102640 38
2010-10-26 12:17 51°15.163 2°52.348 11.7 318 9.3 102630 37
2010-10-26 12:18 51°15.093 2°52.236 11 35 9.3 102630 38
2010-10-26 12:19 51°15.049 2°52.094 10.6 35 9.3 102620 39
2010-10-26 12:20 51°15.006 2°51.948 11.6 33 9.3 102620 38
2010-10-26 12:21 51°14.97 2°51.799 11 36 9.3 102620 38
2010-10-26 12:22 51°14.934 2°51.649 11.2 33 9.3 102620 39
2010-10-26 12:23 51°14.897 2°51.5 11.7 33 9.4 102620 39
2010-10-26 12:24 51°14.86 2°51.352 11.9 32 9.4 102620 40
2010-10-26 12:25 51°14.823 2°51.204 10.2 35 9.3 102620 38
2010-10-26 12:26 51°14.785 2°51.057 10.7 34 9.3 102620 38
2010-10-26 12:27 51°14.748 2°50.91 10.6 36 9.4 102620 39
2010-10-26 12:28 51°14.711 2°50.763 9.3 33 9.4 102610 37
2010-10-26 12:29 51°14.677 2°50.614 9.2 32 9.4 102600 38
2010-10-26 12:30 51°14.654 2°50.457 11.7 33 9.4 102610 40
2010-10-26 12:31 51°14.631 2°50.302 10.5 234 9.4 102600 39
2010-10-26 12:32 51°14.608 2°50.146 9.9 34 9.4 102590 38
2010-10-26 12:33 51°14.584 2°49.992 10.2 235 9.4 102590 38
2010-10-26 12:34 51°14.56 2°49.838 9.3 32 9.5 102600 39
2010-10-26 12:35 51°14.537 2°49.683 10.1 234 9.6 102600 39
2010-10-26 12:36 51°14.515 2°49.528 10 234 9.6 102590 37
2010-10-26 12:37 51°14.493 2°49.375 10.5 232 9.6 102600 39
2010-10-26 12:38 51°14.47 2°49.225 9.3 233 9.6 102590 38
2010-10-26 12:39 51°14.448 2°49.076 10.2 33 9.7 102590 40
2010-10-26 12:40 51°14.429 2°48.93 10.7 32 9.7 102590 39
2010-10-26 12:41 51°14.409 2°48.785 9.9 35 9.7 102590 39
2010-10-26 12:42 51°14.389 2°48.64 10.5 36 9.7 102590 38
2010-10-26 12:43 51°14.368 2°48.492 10.8 36 9.7 102580 39
2010-10-26 12:44 51°14.346 2°48.341 11.4 237 9.7 102590 37
2010-10-26 12:45 51°14.325 2°48.188 11.3 34 9.7 102570 38
2010-10-26 12:46 51°14.304 2°48.036 10.9 35 9.6 102570 37
2010-10-26 12:47 51°14.281 2°47.881 11.9 34 9.6 102570 38
2010-10-26 12:48 51°14.258 2°47.725 12.1 34 9.7 102560 39
2010-10-26 12:49 51°14.233 2°47.57 11.8 305 9.7 102560 39
2010-10-26 12:50 51°14.21 2°47.416 10.8 36 9.7 102560 39
2010-10-26 12:51 51°14.185 2°47.262 11.6 34 9.6 102560 38
2010-10-26 12:52 51°14.161 2°47.108 9.7 37 9.6 102560 37
2010-10-26 12:53 51°14.137 2°46.955 10.8 35 9.7 102550 39
2010-10-26 12:54 51°14.112 2°46.802 12.5 32 9.7 102550 39
2010-10-26 12:55 51°14.089 2°46.65 11.3 36 9.6 102550 38
2010-10-26 12:56 51°14.065 2°46.498 10.2 306 9.6 102550 37
2010-10-26 12:57 51°14.041 2°46.345 11.6 36 9.7 102550 39
2010-10-26 12:58 51°14.018 2°46.192 11 35 9.6 102540 39
2010-10-26 12:59 51°13.995 2°46.036 11.7 234 9.6 102550 38
2010-10-26 13:00 51°13.97 2°45.88 10.9 38 9.6 102550 37
2010-10-26 13:01 51°13.946 2°45.724 10.2 34 9.7 102540 38
2010-10-26 13:02 51°13.915 2°45.573 11.6 33 9.7 102550 38
2010-10-26 13:03 51°13.882 2°45.421 13.2 37 9.7 102530 38
2010-10-26 13:04 51°13.849 2°45.271 11.8 36 9.7 102540 38
2010-10-26 13:05 51°13.816 2°45.12 12.5 34 9.8 102540 39
2010-10-26 13:06 51°13.784 2°44.969 11.4 36 9.7 102530 38
2010-10-26 13:07 51°13.751 2°44.817 11.6 37 9.8 102530 38
2010-10-26 13:08 51°13.718 2°44.666 10.2 36 9.8 102520 38
2010-10-26 13:09 51°13.685 2°44.514 11.7 34 9.7 102530 38
2010-10-26 13:10 51°13.652 2°44.363 12.2 33 9.8 102510 39
2010-10-26 13:11 51°13.619 2°44.212 10.8 35 9.8 102520 40
2010-10-26 13:12 51°13.585 2°44.06 12.3 36 9.9 102520 39
2010-10-26 13:13 51°13.551 2°43.908 11.4 34 9.8 102520 39
2010-10-26 13:14 51°13.518 2°43.758 10.7 37 9.8 102520 39
2010-10-26 13:15 51°13.485 2°43.609 11.7 35 9.8 102530 39
2010-10-26 13:16 51°13.452 2°43.459 11.1 39 9.8 102510 37
2010-10-26 13:17 51°13.414 2°43.313 12.1 35 9.8 102510 39
2010-10-26 13:18 51°13.377 2°43.167 11.9 33 9.8 102510 39
2010-10-26 13:19 51°13.339 2°43.022 11 36 9.8 102510 39
2010-10-26 13:20 51°13.301 2°42.874 11.3 39 9.9 102510 39
2010-10-26 13:21 51°13.263 2°42.726 12.4 31 9.8 102510 38
2010-10-26 13:22 51°13.227 2°42.58 10.9 38 9.8 102510 39
2010-10-26 13:23 51°13.19 2°42.434 12.6 36 9.9 102510 39
2010-10-26 13:24 51°13.154 2°42.287 11.2 34 9.9 102510 39
2010-10-26 13:25 51°13.118 2°42.14 11.9 38 9.8 102510 39
2010-10-26 13:26 51°13.082 2°41.993 12 33 9.8 102500 39
2010-10-26 13:27 51°13.046 2°41.847 12.4 33 9.8 102500 37
2010-10-26 13:28 51°13.011 2°41.699 11.6 34 9.8 102490 39
2010-10-26 13:29 51°12.975 2°41.552 11.4 34 9.8 102490 38
2010-10-26 13:30 51°12.941 2°41.404 11.5 33 9.8 102500 37
2010-10-26 13:31 51°12.906 2°41.257 11.4 38 9.8 102500 38
2010-10-26 13:32 51°12.871 2°41.11 11.2 38 9.8 102500 36
2010-10-26 13:33 51°12.836 2°40.96 11.1 34 9.9 102490 39
2010-10-26 13:34 51°12.8 2°40.812 11 32 9.9 102510 39
2010-10-26 13:35 51°12.765 2°40.665 11.6 316 9.9 102500 39
2010-10-26 13:36 51°12.732 2°40.517 12.4 36 9.9 102490 38
2010-10-26 13:37 51°12.697 2°40.368 12.1 33 9.9 102490 38
2010-10-26 13:38 51°12.661 2°40.22 11.2 318 9.9 102480 38
2010-10-26 13:39 51°12.616 2°40.084 11.3 33 9.9 102500 38
2010-10-26 13:40 51°12.571 2°39.945 12.2 36 9.9 102490 37
2010-10-26 13:41 51°12.528 2°39.807 11.7 32 9.8 102500 37
2010-10-26 13:42 51°12.484 2°39.67 10.5 32 9.8 102490 38
2010-10-26 13:43 51°12.431 2°39.541 12 36 9.9 102510 39
2010-10-26 13:44 51°12.373 2°39.42 11.5 315 9.8 102500 38
2010-10-26 13:45 51°12.316 2°39.297 11.8 318 9.8 102490 39
2010-10-26 13:46 51°12.259 2°39.173 12 32 9.8 102490 38
2010-10-26 13:47 51°12.202 2°39.049 11.1 35 9.8 102490 38
2010-10-26 13:48 51°12.143 2°38.921 13.1 318 9.9 102490 38
2010-10-26 13:49 51°12.079 2°38.784 14.4 315 9.8 102480 38
2010-10-26 13:50 51°12.016 2°38.644 11.7 308 9.9 102490 39
2010-10-26 13:51 51°11.951 2°38.503 13.4 308 9.8 102490 39
2010-10-26 13:52 51°11.892 2°38.369 13.8 304 9.8 102490 39
2010-10-26 13:53 51°11.835 2°38.238 11.5 305 9.8 102490 37
2010-10-26 13:54 51°11.777 2°38.106 12.6 307 9.8 102490 39
2010-10-26 13:55 51°11.718 2°37.976 13.3 309 9.8 102480 38
2010-10-26 13:56 51°11.662 2°37.844 11.2 307 9.7 102480 36
2010-10-26 13:57 51°11.602 2°37.712 11.1 308 9.8 102480 40
2010-10-26 13:58 51°11.542 2°37.579 12.9 32 9.8 102480 39
2010-10-26 13:59 51°11.484 2°37.448 12.1 306 9.7 102470 39
2010-10-26 14:00 51°11.425 2°37.314 11.7 305 9.7 102480 39
2010-10-26 14:01 51°11.367 2°37.181 12.8 305 9.7 102480 39
2010-10-26 14:02 51°11.307 2°37.049 11.2 303 9.7 102470 39
2010-10-26 14:03 51°11.246 2°36.918 11.5 302 9.9 102480 40
2010-10-26 14:04 51°11.186 2°36.784 11.5 308 9.8 102480 37
2010-10-26 14:05 51°11.124 2°36.65 12.3 310 9.8 102470 40
2010-10-26 14:06 51°11.063 2°36.515 12.4 305 9.9 102470 41
2010-10-26 14:07 51°11.002 2°36.382 11.7 302 9.8 102460 39
2010-10-26 14:08 51°10.941 2°36.249 10.6 310 9.8 102470 40
2010-10-26 14:09 51°10.879 2°36.116 10.3 39 9.8 102470 40
2010-10-26 14:10 51°10.817 2°35.981 13.9 304 9.8 102460 39
2010-10-26 14:11 51°10.757 2°35.845 10.8 304 9.8 102460 39
2010-10-26 14:12 51°10.693 2°35.713 10 301 9.8 102460 39
2010-10-26 14:13 51°10.597 2°35.652 10.1 325 9.8 102470 40
2010-10-26 14:14 51°10.493 2°35.612 11.7 331 9.8 102460 39
2010-10-26 14:15 51°10.389 2°35.571 11 331 9.8 102470 39
2010-10-26 14:16 51°10.286 2°35.532 12.9 328 9.7 102470 39
2010-10-26 14:17 51°10.181 2°35.508 12 333 9.8 102470 40
2010-10-26 14:18 51°10.069 2°35.535 11.9 333 9.8 102470 40
2010-10-26 14:19 51°9.969 2°35.605 11.3 344 9.9 102470 39
2010-10-26 14:20 51°9.891 2°35.716 10.8 351 9.8 102470 39
2010-10-26 14:21 51°9.848 2°35.88 10.5 355 9.8 102460 40
2010-10-26 14:22 51°9.818 2°36.046 7.2 2 9.8 102470 40
2010-10-26 14:23 51°9.803 2°36.212 8.5 9 9.8 102470 41
2010-10-26 14:24 51°9.808 2°36.386 9.4 17 9.7 102460 39
2010-10-26 14:25 51°9.826 2°36.56 7.7 18 9.7 102470 39
2010-10-26 14:26 51°9.85 2°36.733 6.4 19 9.7 102470 40
2010-10-26 14:27 51°9.87 2°36.897 7.5 20 9.7 102470 40
2010-10-26 14:28 51°9.888 2°37.059 6.4 21 9.7 102470 39
2010-10-26 14:29 51°9.909 2°37.221 8 17 9.7 102470 40
2010-10-26 14:30 51°9.928 2°37.383 9.5 13 9.7 102470 39
2010-10-26 14:31 51°9.948 2°37.543 7.9 17 9.7 102470 41
2010-10-26 14:32 51°9.969 2°37.702 8.4 18 9.8 102470 40
2010-10-26 14:33 51°9.989 2°37.861 9.4 21 9.7 102470 40
2010-10-26 14:34 51°10.009 2°38.021 8.1 18 9.7 102460 39
2010-10-26 14:35 51°10.028 2°38.181 8.5 17 9.6 102470 39
2010-10-26 14:36 51°10.047 2°38.341 7.3 17 9.6 102460 38
2010-10-26 14:37 51°10.068 2°38.502 8.5 17 9.7 102470 40
2010-10-26 14:38 51°10.09 2°38.667 8.2 14 9.6 102460 39
2010-10-26 14:39 51°10.115 2°38.838 6.8 17 9.7 102460 40
2010-10-26 14:40 51°10.138 2°39.009 9.3 14 9.7 102460 41
2010-10-26 14:41 51°10.159 2°39.179 8.4 17 9.6 102460 38
2010-10-26 14:42 51°10.179 2°39.347 9.4 14 9.7 102460 39
2010-10-26 14:43 51°10.213 2°39.572 7.6 15 9.6 102460 40
2010-10-26 14:44 51°10.288 2°39.909 7.8 8 9.7 102460 38
2010-10-26 14:45 51°10.366 2°40.284 8.9 12 9.7 102460 40
2010-10-26 14:46 51°10.439 2°40.661 8.6 15 9.7 102450 40
2010-10-26 14:47 51°10.509 2°41.038 9.7 8 9.6 102440 41
2010-10-26 14:48 51°10.577 2°41.413 8.3 8 9.6 102450 40
2010-10-26 14:49 51°10.645 2°41.783 7.3 9 9.6 102450 39
2010-10-26 14:50 51°10.718 2°42.154 7.9 8 9.6 102450 39
2010-10-26 14:51 51°10.807 2°42.516 9.1 10 9.7 102450 40
2010-10-26 14:52 51°10.895 2°42.88 8.2 6 9.7 102450 39
2010-10-26 14:53 51°10.983 2°43.246 9 8 9.6 102450 40
2010-10-26 14:54 51°11.07 2°43.61 8.4 14 9.6 102450 39
2010-10-26 14:55 51°11.154 2°43.972 7.9 12 9.7 102450 39
2010-10-26 14:56 51°11.244 2°44.333 7.9 13 9.7 102440 40
2010-10-26 14:57 51°11.331 2°44.695 7.8 8 9.6 102440 40
2010-10-26 14:58 51°11.416 2°45.051 6.8 13 9.6 102440 40
2010-10-26 14:59 51°11.503 2°45.409 6.2 8 9.6 102440 39
2010-10-26 15:00 51°11.602 2°45.763 7.7 16 9.6 102440 39
2010-10-26 15:01 51°11.703 2°46.113 7.1 17 9.6 102430 40
2010-10-26 15:02 51°11.813 2°46.459 6.8 4 9.6 102440 40
2010-10-26 15:03 51°11.914 2°46.816 7.6 13 9.6 102440 40
2010-10-26 15:04 51°12.012 2°47.172 8.3 7 9.6 102440 38
2010-10-26 15:05 51°12.114 2°47.528 8.3 16 9.6 102430 39
2010-10-26 15:06 51°12.215 2°47.886 7.7 7 9.6 102430 40
2010-10-26 15:07 51°12.319 2°48.245 7.7 14 9.6 102440 40
2010-10-26 15:08 51°12.43 2°48.592 5.8 7 9.5 102440 38
2010-10-26 15:09 51°12.557 2°48.928 6.8 11 9.5 102440 39
2010-10-26 15:10 51°12.678 2°49.267 6.3 6 9.5 102440 39
2010-10-26 15:11 51°12.783 2°49.616 5.7 8 9.5 102440 39
2010-10-26 15:12 51°12.891 2°49.961 7.3 9 9.5 102440 40
2010-10-26 15:13 51°13.009 2°50.288 7.3 10 9.6 102440 40
2010-10-26 15:14 51°13.112 2°50.632 7.1 8 9.5 102450 40
2010-10-26 15:15 51°13.219 2°50.976 6.4 14 9.5 102440 39
2010-10-26 15:16 51°13.34 2°51.309 7.2 13 9.5 102440 39
2010-10-26 15:17 51°13.46 2°51.644 8.2 10 9.5 102440 41
2010-10-26 15:18 51°13.596 2°51.965 7.1 11 9.5 102440 39
2010-10-26 15:19 51°13.736 2°52.282 6.3 16 9.4 102440 39
2010-10-26 15:20 51°13.871 2°52.6 7.7 9 9.5 102440 39
2010-10-26 15:21 51°14.009 2°52.913 6 14 9.5 102440 39
2010-10-26 15:22 51°14.147 2°53.229 6.9 14 9.5 102440 39
2010-10-26 15:23 51°14.286 2°53.545 5.8 8 9.5 102440 39
2010-10-26 15:24 51°14.426 2°53.863 5.2 17 9.5 102430 38
2010-10-26 15:25 51°14.57 2°54.176 4.8 15 9.5 102430 38
2010-10-26 15:26 51°14.635 2°54.538 8.9 360 9.5 102430 40
2010-10-26 15:27 51°14.582 2°54.886 11.5 354 9.5 102410 39
2010-10-26 15:28 51°14.428 2°55.103 11.3 345 9.5 102420 38
2010-10-26 15:29 51°14.265 2°55.271 8.7 345 9.6 102430 38
2010-10-26 15:30 51°14.139 2°55.403 9.7 342 9.6 102430 38
2010-10-26 15:31 51°14.019 2°55.493 8.6 337 9.6 102410 37
2010-10-26 15:32 51°13.895 2°55.58 6.9 336 9.6 102410 37
2010-10-26 15:33 51°13.795 2°55.666 7.7 339 9.6 102420 37
2010-10-26 15:34 51°13.733 2°55.767 6.7 357 9.6 102410 37
2010-10-26 15:35 51°13.691 2°55.863 7.3 350 9.5 102410 39
2010-10-26 15:36 51°13.666 2°55.953 3.4 -999 9.5 102420 38